TimeAST,TemperatureF,Dew PointF,Humidity,Sea Level PressureIn,VisibilityMPH,Wind Direction,Wind SpeedMPH,Gust SpeedMPH,PrecipitationIn,Events,Conditions,WindDirDegrees,DateUTC
12:53 AM,72.0,64.0,76,29.94,10.0,Calm,Calm,-,N/A,,Clear,0,2013-03-02 04:53:00
1:53 AM,70.0,62.1,76,29.91,10.0,East,3.5,-,N/A,,Clear,80,2013-03-02 05:53:00
2:53 AM,72.0,62.1,71,29.89,10.0,ENE,4.6,-,N/A,,Clear,70,2013-03-02 06:53:00
3:53 AM,71.1,62.1,73,29.89,10.0,Calm,Calm,-,N/A,,Clear,0,2013-03-02 07:53:00
4:53 AM,71.1,63.0,75,29.90,10.0,East,3.5,-,N/A,,Clear,80,2013-03-02 08:53:00
5:53 AM,71.1,63.0,75,29.91,10.0,ENE,3.5,-,N/A,,Clear,70,2013-03-02 09:53:00
6:53 AM,71.1,63.0,75,29.93,10.0,East,3.5,-,N/A,,Partly Cloudy,90,2013-03-02 10:53:00
7:53 AM,75.9,64.0,67,29.95,10.0,East,5.8,-,N/A,,Scattered Clouds,90,2013-03-02 11:53:00
8:53 AM,78.1,64.0,62,29.98,10.0,SE,6.9,-,N/A,,Clear,140,2013-03-02 12:53:00
9:53 AM,79.0,64.0,60,29.99,10.0,SSE,9.2,-,N/A,,Clear,150,2013-03-02 13:53:00
10:53 AM,80.1,64.9,60,29.99,10.0,SSE,9.2,-,N/A,,Clear,150,2013-03-02 14:53:00
11:53 AM,80.1,64.9,60,29.98,10.0,South,10.4,-,N/A,,Clear,170,2013-03-02 15:53:00
12:53 PM,81.0,64.9,58,29.96,10.0,SSE,9.2,-,N/A,,Clear,160,2013-03-02 16:53:00
1:53 PM,81.0,64.9,58,29.94,10.0,SSE,11.5,-,N/A,,Clear,160,2013-03-02 17:53:00
2:37 PM,80.6,64.4,58,29.92,10.0,SE,6.9,-,N/A,,Partly Cloudy,130,2013-03-02 18:37:00
2:53 PM,80.1,64.9,60,29.92,10.0,SSE,9.2,-,N/A,,Partly Cloudy,160,2013-03-02 18:53:00
3:53 PM,81.0,64.9,58,29.91,10.0,South,5.8,-,N/A,,Clear,170,2013-03-02 19:53:00
4:53 PM,79.0,64.9,62,29.91,10.0,SSE,5.8,-,N/A,,Clear,150,2013-03-02 20:53:00
5:53 PM,78.1,66.9,68,29.92,10.0,SSE,6.9,-,N/A,,Partly Cloudy,150,2013-03-02 21:53:00
6:53 PM,78.1,68.0,71,29.93,10.0,SE,9.2,-,N/A,,Partly Cloudy,140,2013-03-02 22:53:00
7:53 PM,78.1,69.1,74,29.94,10.0,SE,9.2,-,N/A,,Partly Cloudy,140,2013-03-02 23:53:00
8:53 PM,78.1,69.1,74,29.95,10.0,SE,12.7,-,N/A,,Mostly Cloudy,140,2013-03-03 00:53:00
9:53 PM,78.1,69.1,74,29.97,10.0,SSE,9.2,-,N/A,,Scattered Clouds,150,2013-03-03 01:53:00
10:08 PM,78.8,69.8,74,29.97,10.0,SSE,8.1,-,N/A,,Mostly Cloudy,150,2013-03-03 02:08:00
10:15 PM,78.8,69.8,74,29.97,10.0,SSE,9.2,-,N/A,,Scattered Clouds,160,2013-03-03 02:15:00
10:53 PM,78.1,69.1,74,29.97,10.0,SSE,10.4,-,N/A,,Scattered Clouds,160,2013-03-03 02:53:00
11:53 PM,77.0,69.1,76,29.96,10.0,SSE,11.5,-,N/A,,Partly Cloudy,160,2013-03-03 03:53:00